Time,TemperatureF,DewpointF,PressureIn,WindDirection,WindDirectionDegrees,WindSpeedMPH,WindSpeedGustMPH,Humidity,HourlyPrecipIn,Conditions,Clouds,dailyrainin,SoftwareType,DateUTC
2013-07-12 00:01:00,68.0,61.6,29.00,West,270,0.0,0.0,80,0.13,,---,0.13,VWS V13.01,2013-07-12 04:01:00,
2013-07-12 00:02:00,68.0,61.6,28.97,West,270,0.0,0.0,80,0.13,,---,0.13,VWS V13.01,2013-07-12 04:02:00,
2013-07-12 00:03:00,68.0,61.6,28.97,West,270,0.0,0.0,80,0.13,,---,0.13,VWS V13.01,2013-07-12 04:03:00,
2013-07-12 00:13:00,68.2,61.8,28.97,South,180,0.0,0.0,80,0.00,,---,0.00,VWS V13.01,2013-07-12 04:13:00,
2013-07-12 00:14:00,68.2,61.8,28.97,South,180,0.0,0.0,80,0.13,,---,0.00,VWS V13.01,2013-07-12 04:14:00,
2013-07-12 00:19:00,68.2,61.8,28.97,NE,45,0.0,0.0,80,0.13,,---,0.00,VWS V13.01,2013-07-12 04:19:00,
2013-07-12 00:24:00,68.2,61.8,28.97,North,0,0.0,0.0,80,0.17,,---,0.04,VWS V13.01,2013-07-12 04:24:00,
2013-07-12 00:29:00,67.6,61.6,28.97,NNE,22,0.0,0.0,81,0.17,,---,0.04,VWS V13.01,2013-07-12 04:29:00,
2013-07-12 00:34:00,67.5,61.4,28.97,NNE,22,0.0,0.0,81,0.17,,---,0.04,VWS V13.01,2013-07-12 04:34:00,
2013-07-12 00:39:00,67.5,61.4,28.97,NE,45,0.0,0.0,81,0.17,,---,0.04,VWS V13.01,2013-07-12 04:39:00,
2013-07-12 00:44:00,67.3,61.3,28.97,NE,45,0.0,0.0,81,0.08,,---,0.04,VWS V13.01,2013-07-12 04:44:00,
2013-07-12 00:49:00,67.5,61.4,29.00,NE,45,0.0,0.0,81,0.08,,---,0.04,VWS V13.01,2013-07-12 04:49:00,
2013-07-12 00:54:00,67.5,61.4,29.00,NE,45,0.0,0.0,81,0.12,,---,0.08,VWS V13.01,2013-07-12 04:54:00,
2013-07-12 00:59:00,67.5,61.4,29.00,NE,45,0.0,0.0,81,0.12,,---,0.08,VWS V13.01,2013-07-12 04:59:00,
2013-07-12 01:04:00,67.6,61.6,29.00,NE,45,0.0,0.0,81,0.08,,---,0.08,VWS V13.01,2013-07-12 05:04:00,
2013-07-12 01:09:00,67.6,61.6,29.00,NE,45,0.0,0.0,81,0.08,,---,0.08,VWS V13.01,2013-07-12 05:09:00,
2013-07-12 01:15:00,67.6,61.6,29.00,NE,45,0.0,0.0,81,0.12,,---,0.12,VWS V13.01,2013-07-12 05:15:00,
2013-07-12 01:20:00,67.6,61.6,29.00,NE,45,0.0,0.0,81,0.12,,---,0.12,VWS V13.01,2013-07-12 05:20:00,
2013-07-12 01:25:00,67.6,61.6,29.00,NE,45,0.0,0.0,81,0.08,,---,0.12,VWS V13.01,2013-07-12 05:25:00,
2013-07-12 01:30:00,67.6,61.6,29.00,NE,45,0.0,0.0,81,0.08,,---,0.12,VWS V13.01,2013-07-12 05:30:00,
2013-07-12 01:35:00,67.6,61.6,28.97,NE,45,0.0,0.0,81,0.08,,---,0.12,VWS V13.01,2013-07-12 05:35:00,
2013-07-12 01:40:00,67.6,61.6,28.97,NE,45,0.0,0.0,81,0.08,,---,0.12,VWS V13.01,2013-07-12 05:40:00,
2013-07-12 01:45:00,67.6,61.6,28.97,NE,45,0.0,0.0,81,0.08,,---,0.12,VWS V13.01,2013-07-12 05:45:00,
2013-07-12 01:50:00,67.6,61.6,29.00,NE,45,0.0,0.0,81,0.12,,---,0.16,VWS V13.01,2013-07-12 05:50:00,
2013-07-12 01:55:00,67.6,62.0,29.00,NE,45,0.0,0.0,82,0.12,,---,0.16,VWS V13.01,2013-07-12 05:55:00,
2013-07-12 02:00:00,67.6,62.0,29.00,NE,45,0.0,0.0,82,0.12,,---,0.16,VWS V13.01,2013-07-12 06:00:00,
2013-07-12 02:05:00,67.6,62.0,29.00,NE,45,0.0,0.0,82,0.08,,---,0.16,VWS V13.01,2013-07-12 06:05:00,
2013-07-12 02:10:00,67.6,62.0,29.00,NE,45,0.0,0.0,82,0.08,,---,0.16,VWS V13.01,2013-07-12 06:10:00,
2013-07-12 02:15:00,67.6,62.0,29.00,NE,45,0.0,0.0,82,0.08,,---,0.16,VWS V13.01,2013-07-12 06:15:00,
2013-07-12 02:20:00,67.6,62.0,29.00,NE,45,0.0,0.0,82,0.08,,---,0.16,VWS V13.01,2013-07-12 06:20:00,
2013-07-12 02:25:00,67.8,62.1,29.00,NE,45,0.0,0.0,82,0.04,,---,0.16,VWS V13.01,2013-07-12 06:25:00,
2013-07-12 02:31:00,67.6,62.0,29.00,NE,45,0.0,0.0,82,0.04,,---,0.16,VWS V13.01,2013-07-12 06:31:00,
2013-07-12 02:36:00,67.5,61.8,29.00,NE,45,0.0,0.0,82,0.04,,---,0.16,VWS V13.01,2013-07-12 06:36:00,
2013-07-12 02:41:00,67.5,61.8,29.00,NE,45,0.0,0.0,82,0.04,,---,0.16,VWS V13.01,2013-07-12 06:41:00,
2013-07-12 02:46:00,67.5,61.8,29.00,NE,45,0.0,0.0,82,0.04,,---,0.16,VWS V13.01,2013-07-12 06:46:00,
2013-07-12 02:51:00,67.5,61.8,29.00,NE,45,0.0,0.0,82,0.04,,---,0.16,VWS V13.01,2013-07-12 06:51:00,
2013-07-12 02:56:00,67.3,61.6,29.00,NE,45,0.0,0.0,82,0.08,,---,0.20,VWS V13.01,2013-07-12 06:56:00,
2013-07-12 03:01:00,67.3,61.6,29.00,NE,45,0.0,0.0,82,0.08,,---,0.20,VWS V13.01,2013-07-12 07:01:00,
2013-07-12 03:06:00,67.1,61.4,28.97,NE,45,0.0,0.0,82,0.04,,---,0.20,VWS V13.01,2013-07-12 07:06:00,
2013-07-12 03:11:00,66.7,61.1,28.97,NE,45,0.0,0.0,82,0.04,,---,0.20,VWS V13.01,2013-07-12 07:11:00,
2013-07-12 03:16:00,66.6,60.6,28.97,NE,45,0.0,0.0,81,0.04,,---,0.20,VWS V13.01,2013-07-12 07:16:00,
2013-07-12 03:21:00,66.6,60.6,28.97,NE,45,0.0,0.0,81,0.04,,---,0.20,VWS V13.01,2013-07-12 07:21:00,
2013-07-12 03:26:00,66.4,60.4,28.97,NE,45,0.0,0.0,81,0.04,,---,0.20,VWS V13.01,2013-07-12 07:26:00,
2013-07-12 03:31:00,66.2,60.2,28.97,NE,45,0.0,0.0,81,0.04,,---,0.20,VWS V13.01,2013-07-12 07:31:00,
2013-07-12 03:36:00,66.2,60.2,28.97,NE,45,0.0,0.0,81,0.04,,---,0.20,VWS V13.01,2013-07-12 07:36:00,
2013-07-12 03:41:00,66.4,60.4,28.97,NE,45,0.0,0.0,81,0.04,,---,0.20,VWS V13.01,2013-07-12 07:41:00,
2013-07-12 03:47:00,66.4,60.4,28.97,NE,45,0.0,0.0,81,0.04,,---,0.20,VWS V13.01,2013-07-12 07:47:00,
2013-07-12 03:52:00,66.4,60.4,28.97,NE,45,0.0,0.0,81,0.04,,---,0.20,VWS V13.01,2013-07-12 07:52:00,
2013-07-12 03:57:00,66.4,60.4,28.97,NE,45,0.0,0.0,81,0.04,,---,0.20,VWS V13.01,2013-07-12 07:57:00,
2013-07-12 04:02:00,66.4,60.4,28.97,NE,45,0.0,0.0,81,0.04,,---,0.20,VWS V13.01,2013-07-12 08:02:00,
2013-07-12 04:07:00,66.2,60.2,28.97,NE,45,0.0,0.0,81,0.00,,---,0.20,VWS V13.01,2013-07-12 08:07:00,
2013-07-12 04:12:00,66.4,60.4,28.97,NE,45,0.0,0.0,81,0.00,,---,0.20,VWS V13.01,2013-07-12 08:12:00,
2013-07-12 04:17:00,66.4,60.4,28.97,NE,45,0.0,0.0,81,0.00,,---,0.20,VWS V13.01,2013-07-12 08:17:00,
2013-07-12 04:22:00,66.4,60.4,29.00,NE,45,0.0,0.0,81,0.00,,---,0.20,VWS V13.01,2013-07-12 08:22:00,
2013-07-12 04:27:00,66.4,60.4,29.00,NE,45,0.0,0.0,81,0.00,,---,0.20,VWS V13.01,2013-07-12 08:27:00,
2013-07-12 04:32:00,66.2,60.2,29.00,NE,45,0.0,0.0,81,0.00,,---,0.20,VWS V13.01,2013-07-12 08:32:00,
2013-07-12 04:37:00,66.2,60.2,28.97,NE,45,0.0,0.0,81,0.05,,---,0.25,VWS V13.01,2013-07-12 08:37:00,
2013-07-12 04:42:00,66.2,60.2,28.97,NE,45,0.0,0.0,81,0.05,,---,0.25,VWS V13.01,2013-07-12 08:42:00,
2013-07-12 04:47:00,66.2,60.2,28.97,NE,45,0.0,0.0,81,0.05,,---,0.25,VWS V13.01,2013-07-12 08:47:00,
2013-07-12 04:52:00,66.0,60.4,28.97,NE,45,0.0,0.0,82,0.05,,---,0.25,VWS V13.01,2013-07-12 08:52:00,
2013-07-12 04:58:00,66.0,60.4,28.97,NE,45,0.0,0.0,82,0.05,,---,0.25,VWS V13.01,2013-07-12 08:58:00,
2013-07-12 05:03:00,66.0,60.4,28.97,NE,45,0.0,0.0,82,0.05,,---,0.25,VWS V13.01,2013-07-12 09:03:00,
2013-07-12 05:08:00,66.0,60.4,28.97,NE,45,0.0,0.0,82,0.05,,---,0.25,VWS V13.01,2013-07-12 09:08:00,
2013-07-12 05:12:00,66.2,60.2,28.97,NE,45,0.0,0.0,81,0.05,,---,0.25,VWS V13.01,2013-07-12 09:12:00,
2013-07-12 05:17:00,66.2,60.2,28.97,NE,45,0.0,0.0,81,0.05,,---,0.25,VWS V13.01,2013-07-12 09:17:00,
2013-07-12 05:22:00,66.2,60.2,28.97,NE,45,0.0,0.0,81,0.05,,---,0.25,VWS V13.01,2013-07-12 09:22:00,
2013-07-12 05:27:00,66.2,60.2,28.97,NE,45,0.0,0.0,81,0.05,,---,0.25,VWS V13.01,2013-07-12 09:27:00,
2013-07-12 05:33:00,66.2,60.2,28.94,NE,45,0.0,0.0,81,0.05,,---,0.25,VWS V13.01,2013-07-12 09:33:00,
2013-07-12 05:38:00,66.2,60.2,28.94,NE,45,0.0,0.0,81,0.05,,---,0.25,VWS V13.01,2013-07-12 09:38:00,
2013-07-12 05:43:00,66.0,60.4,28.94,NE,45,0.0,0.0,82,0.05,,---,0.25,VWS V13.01,2013-07-12 09:43:00,
2013-07-12 05:48:00,66.2,60.2,28.97,NE,45,0.0,0.0,81,0.00,,---,0.25,VWS V13.01,2013-07-12 09:48:00,
2013-07-12 05:53:00,66.2,60.2,28.97,NE,45,0.0,0.0,81,0.00,,---,0.25,VWS V13.01,2013-07-12 09:53:00,
2013-07-12 05:58:00,66.2,60.2,28.97,NE,45,0.0,0.0,81,0.00,,---,0.25,VWS V13.01,2013-07-12 09:58:00,
2013-07-12 06:03:00,66.2,60.2,28.97,NE,45,0.0,0.0,81,0.00,,---,0.25,VWS V13.01,2013-07-12 10:03:00,
2013-07-12 06:08:00,66.0,60.4,28.97,NE,45,0.0,0.0,82,0.00,,---,0.25,VWS V13.01,2013-07-12 10:08:00,
2013-07-12 06:13:00,66.0,60.4,28.97,NE,45,0.0,0.0,82,0.00,,---,0.25,VWS V13.01,2013-07-12 10:13:00,
2013-07-12 06:18:00,66.0,60.0,28.97,NE,45,0.0,0.0,81,0.00,,---,0.25,VWS V13.01,2013-07-12 10:18:00,
2013-07-12 06:23:00,66.0,60.0,28.97,NE,45,0.0,0.0,81,0.00,,---,0.25,VWS V13.01,2013-07-12 10:23:00,
2013-07-12 06:28:00,66.0,60.0,28.97,NE,45,0.0,0.0,81,0.00,,---,0.25,VWS V13.01,2013-07-12 10:28:00,
2013-07-12 06:33:00,65.8,59.8,28.97,NE,45,0.0,0.0,81,0.00,,---,0.25,VWS V13.01,2013-07-12 10:33:00,
2013-07-12 06:38:00,66.0,60.0,28.97,NE,45,0.0,0.0,81,0.00,,---,0.25,VWS V13.01,2013-07-12 10:38:00,
2013-07-12 06:43:00,66.0,60.0,28.97,NE,45,0.0,0.0,81,0.00,,---,0.25,VWS V13.01,2013-07-12 10:43:00,
2013-07-12 06:49:00,66.0,60.0,28.97,NE,45,0.0,0.0,81,0.00,,---,0.25,VWS V13.01,2013-07-12 10:49:00,
2013-07-12 06:54:00,66.0,60.0,28.97,NE,45,0.0,0.0,81,0.00,,---,0.25,VWS V13.01,2013-07-12 10:54:00,
2013-07-12 06:59:00,66.2,60.2,28.97,NE,45,0.0,0.0,81,0.00,,---,0.25,VWS V13.01,2013-07-12 10:59:00,
2013-07-12 07:04:00,66.2,60.2,28.97,NE,45,0.0,0.0,81,0.00,,---,0.25,VWS V13.01,2013-07-12 11:04:00,
2013-07-12 07:09:00,66.2,60.2,28.97,NE,45,0.0,0.0,81,0.00,,---,0.25,VWS V13.01,2013-07-12 11:09:00,
2013-07-12 07:14:00,66.4,60.4,28.97,NE,45,0.0,0.0,81,0.00,,---,0.25,VWS V13.01,2013-07-12 11:14:00,
2013-07-12 07:19:00,66.4,60.4,29.00,NE,45,0.0,0.0,81,0.00,,---,0.25,VWS V13.01,2013-07-12 11:19:00,
2013-07-12 07:24:00,66.4,60.4,29.00,NE,45,0.0,0.0,81,0.00,,---,0.25,VWS V13.01,2013-07-12 11:24:00,
2013-07-12 07:29:00,66.6,60.6,29.00,NE,45,0.0,0.0,81,0.00,,---,0.25,VWS V13.01,2013-07-12 11:29:00,
2013-07-12 07:34:00,66.6,60.6,29.00,NE,45,0.0,0.0,81,0.00,,---,0.25,VWS V13.01,2013-07-12 11:34:00,
2013-07-12 07:39:00,66.6,60.6,29.00,NE,45,0.0,0.0,81,0.00,,---,0.25,VWS V13.01,2013-07-12 11:39:00,
2013-07-12 07:44:00,66.6,60.6,29.00,NE,45,0.0,0.0,81,0.00,,---,0.25,VWS V13.01,2013-07-12 11:44:00,
2013-07-12 07:49:00,66.7,60.7,29.03,NE,45,0.0,0.0,81,0.00,,---,0.25,VWS V13.01,2013-07-12 11:49:00,
2013-07-12 07:54:00,66.9,60.9,29.03,NE,45,0.0,0.0,81,0.00,,---,0.25,VWS V13.01,2013-07-12 11:54:00,
2013-07-12 08:00:00,66.9,60.9,29.03,NE,45,0.0,0.0,81,0.00,,---,0.25,VWS V13.01,2013-07-12 12:00:00,
2013-07-12 08:05:00,66.9,60.9,29.00,NE,45,0.0,0.0,81,0.00,,---,0.25,VWS V13.01,2013-07-12 12:05:00,
2013-07-12 08:10:00,66.9,60.9,29.00,NE,45,0.0,0.0,81,0.00,,---,0.25,VWS V13.01,2013-07-12 12:10:00,
2013-07-12 08:15:00,67.1,61.1,29.00,NE,45,0.0,0.0,81,0.00,,---,0.25,VWS V13.01,2013-07-12 12:15:00,
2013-07-12 08:20:00,67.1,61.1,29.03,NE,45,0.0,0.0,81,0.00,,---,0.25,VWS V13.01,2013-07-12 12:20:00,
2013-07-12 08:25:00,67.3,61.3,29.03,NE,45,0.0,0.0,81,0.00,,---,0.25,VWS V13.01,2013-07-12 12:25:00,
2013-07-12 08:30:00,67.1,61.1,29.03,NE,45,0.0,0.0,81,0.00,,---,0.25,VWS V13.01,2013-07-12 12:30:00,
2013-07-12 08:35:00,67.1,61.1,29.03,NE,45,0.0,0.0,81,0.00,,---,0.25,VWS V13.01,2013-07-12 12:35:00,
2013-07-12 08:40:00,67.3,61.3,29.03,NE,45,0.0,0.0,81,0.00,,---,0.25,VWS V13.01,2013-07-12 12:40:00,
2013-07-12 08:45:00,67.3,61.3,29.03,NE,45,0.0,0.0,81,0.00,,---,0.25,VWS V13.01,2013-07-12 12:45:00,
2013-07-12 08:50:00,67.3,61.3,29.03,NE,45,0.0,0.0,81,0.00,,---,0.25,VWS V13.01,2013-07-12 12:50:00,
2013-07-12 08:55:00,67.5,61.4,29.03,NE,45,0.0,0.0,81,0.00,,---,0.25,VWS V13.01,2013-07-12 12:55:00,
2013-07-12 09:00:00,67.6,61.6,29.03,NE,45,0.0,0.0,81,0.00,,---,0.25,VWS V13.01,2013-07-12 13:00:00,
2013-07-12 09:05:00,67.8,61.8,29.03,NE,45,0.0,0.0,81,0.00,,---,0.25,VWS V13.01,2013-07-12 13:05:00,
2013-07-12 09:10:00,67.8,61.8,29.03,NE,45,0.0,0.0,81,0.00,,---,0.25,VWS V13.01,2013-07-12 13:10:00,
2013-07-12 09:16:00,67.8,61.8,29.03,NE,45,0.0,0.0,81,0.00,,---,0.25,VWS V13.01,2013-07-12 13:16:00,
2013-07-12 09:21:00,67.8,61.8,29.03,NE,45,0.0,0.0,81,0.00,,---,0.25,VWS V13.01,2013-07-12 13:21:00,
2013-07-12 09:26:00,68.0,61.6,29.03,NE,45,0.0,0.0,80,0.00,,---,0.25,VWS V13.01,2013-07-12 13:26:00,
2013-07-12 09:31:00,68.2,61.8,29.03,NE,45,0.0,0.0,80,0.00,,---,0.25,VWS V13.01,2013-07-12 13:31:00,
2013-07-12 09:36:00,68.2,61.8,29.03,NE,45,0.0,0.0,80,0.00,,---,0.25,VWS V13.01,2013-07-12 13:36:00,
2013-07-12 09:41:00,68.2,61.8,29.03,NE,45,0.0,0.0,80,0.00,,---,0.25,VWS V13.01,2013-07-12 13:41:00,
2013-07-12 09:46:00,68.4,62.0,29.03,NE,45,0.0,0.0,80,0.00,,---,0.25,VWS V13.01,2013-07-12 13:46:00,
2013-07-12 09:51:00,68.5,62.1,29.03,NE,45,0.0,0.0,80,0.00,,---,0.25,VWS V13.01,2013-07-12 13:51:00,
2013-07-12 09:56:00,68.7,62.3,29.03,NE,45,0.0,0.0,80,0.00,,---,0.25,VWS V13.01,2013-07-12 13:56:00,
2013-07-12 10:01:00,69.1,62.7,29.03,NE,45,0.0,0.0,80,0.00,,---,0.25,VWS V13.01,2013-07-12 14:01:00,
2013-07-12 10:07:00,69.1,62.7,29.03,NE,45,0.0,0.0,80,0.00,,---,0.25,VWS V13.01,2013-07-12 14:07:00,
2013-07-12 10:12:00,69.3,62.8,29.03,NE,45,0.0,0.0,80,0.00,,---,0.25,VWS V13.01,2013-07-12 14:12:00,
2013-07-12 10:17:00,69.3,62.8,29.03,NE,45,0.0,0.0,80,0.00,,---,0.25,VWS V13.01,2013-07-12 14:17:00,
2013-07-12 10:22:00,69.3,62.8,29.03,NE,45,0.0,0.0,80,0.00,,---,0.25,VWS V13.01,2013-07-12 14:22:00,
2013-07-12 10:27:00,69.3,62.8,29.03,NE,45,0.0,0.0,80,0.00,,---,0.25,VWS V13.01,2013-07-12 14:27:00,
2013-07-12 10:32:00,69.4,63.0,29.03,NE,45,0.0,0.0,80,0.00,,---,0.25,VWS V13.01,2013-07-12 14:32:00,
2013-07-12 10:37:00,69.6,63.2,29.03,NE,45,0.0,0.0,80,0.00,,---,0.25,VWS V13.01,2013-07-12 14:37:00,
2013-07-12 10:42:00,69.6,63.2,29.03,NE,45,0.0,0.0,80,0.00,,---,0.25,VWS V13.01,2013-07-12 14:42:00,
2013-07-12 10:47:00,69.6,63.2,29.03,NE,45,0.0,0.0,80,0.00,,---,0.25,VWS V13.01,2013-07-12 14:47:00,
2013-07-12 10:53:00,69.6,63.2,29.03,NE,45,0.0,0.0,80,0.00,,---,0.25,VWS V13.01,2013-07-12 14:53:00,
2013-07-12 10:58:00,69.6,63.2,29.03,NE,45,0.0,0.0,80,0.00,,---,0.25,VWS V13.01,2013-07-12 14:58:00,
2013-07-12 11:03:00,69.3,62.8,29.06,NE,45,0.0,0.0,80,0.00,,---,0.25,VWS V13.01,2013-07-12 15:03:00,
2013-07-12 11:08:00,69.3,62.8,29.06,NE,45,0.0,0.0,80,0.00,,---,0.25,VWS V13.01,2013-07-12 15:08:00,
2013-07-12 11:13:00,69.3,62.8,29.06,NE,45,0.0,0.0,80,0.00,,---,0.25,VWS V13.01,2013-07-12 15:13:00,
2013-07-12 11:18:00,69.1,62.7,29.06,NE,45,0.0,0.0,80,0.00,,---,0.25,VWS V13.01,2013-07-12 15:18:00,
2013-07-12 11:23:00,69.1,62.7,29.06,NE,45,0.0,0.0,80,0.00,,---,0.25,VWS V13.01,2013-07-12 15:23:00,
2013-07-12 11:28:00,69.3,62.8,29.06,NE,45,0.0,0.0,80,0.00,,---,0.25,VWS V13.01,2013-07-12 15:28:00,
2013-07-12 11:33:00,69.4,63.0,29.06,NE,45,0.0,0.0,80,0.00,,---,0.25,VWS V13.01,2013-07-12 15:33:00,
2013-07-12 11:38:00,69.4,63.0,29.06,NE,45,0.0,0.0,80,0.00,,---,0.25,VWS V13.01,2013-07-12 15:38:00,
2013-07-12 11:43:00,69.4,63.0,29.06,NE,45,0.0,0.0,80,0.00,,---,0.25,VWS V13.01,2013-07-12 15:43:00,
2013-07-12 11:49:00,69.6,63.2,29.06,NE,45,0.0,0.0,80,0.00,,---,0.25,VWS V13.01,2013-07-12 15:49:00,
2013-07-12 11:54:00,69.6,63.2,29.06,NE,45,0.0,0.0,80,0.00,,---,0.25,VWS V13.01,2013-07-12 15:54:00,
2013-07-12 11:59:00,69.8,63.4,29.06,NE,45,0.0,0.0,80,0.00,,---,0.25,VWS V13.01,2013-07-12 15:59:00,
2013-07-12 12:04:00,69.8,63.4,29.06,NE,45,0.0,0.0,80,0.00,,---,0.25,VWS V13.01,2013-07-12 16:04:00,
2013-07-12 12:09:00,69.8,63.4,29.06,NE,45,0.0,0.0,80,0.00,,---,0.25,VWS V13.01,2013-07-12 16:09:00,
2013-07-12 12:14:00,69.8,63.4,29.06,NE,45,0.0,0.0,80,0.00,,---,0.25,VWS V13.01,2013-07-12 16:14:00,
2013-07-12 12:19:00,70.0,63.5,29.06,NE,45,0.0,0.0,80,0.00,,---,0.25,VWS V13.01,2013-07-12 16:19:00,
2013-07-12 12:24:00,70.0,63.5,29.06,NE,45,0.0,0.0,80,0.00,,---,0.25,VWS V13.01,2013-07-12 16:24:00,
2013-07-12 12:29:00,70.2,63.7,29.06,NE,45,0.0,0.0,80,0.00,,---,0.25,VWS V13.01,2013-07-12 16:29:00,
2013-07-12 12:34:00,70.3,63.9,29.06,NE,45,0.0,0.0,80,0.00,,---,0.25,VWS V13.01,2013-07-12 16:34:00,
2013-07-12 12:39:00,70.3,63.9,29.06,NE,45,0.0,0.0,80,0.00,,---,0.25,VWS V13.01,2013-07-12 16:39:00,
2013-07-12 12:45:00,70.3,63.9,29.06,NE,45,0.0,0.0,80,0.00,,---,0.25,VWS V13.01,2013-07-12 16:45:00,
2013-07-12 12:50:00,70.2,63.7,29.06,NE,45,0.0,0.0,80,0.00,,---,0.25,VWS V13.01,2013-07-12 16:50:00,
2013-07-12 12:55:00,70.2,63.7,29.06,NE,45,0.0,0.0,80,0.00,,---,0.25,VWS V13.01,2013-07-12 16:55:00,
2013-07-12 13:01:00,70.2,63.7,29.06,NE,45,0.0,0.0,80,0.00,,---,0.25,VWS V13.01,2013-07-12 17:01:00,
2013-07-12 13:06:00,70.5,64.1,29.06,NE,45,0.0,0.0,80,0.00,,---,0.25,VWS V13.01,2013-07-12 17:06:00,
2013-07-12 13:11:00,70.5,64.1,29.06,NE,45,0.0,0.0,80,0.00,,---,0.25,VWS V13.01,2013-07-12 17:11:00,
2013-07-12 13:18:00,70.3,63.9,29.06,NE,45,0.0,0.0,80,0.00,,---,0.25,VWS V13.01,2013-07-12 17:18:00,
2013-07-12 13:23:00,70.3,63.9,29.06,NE,45,0.0,0.0,80,0.00,,---,0.25,VWS V13.01,2013-07-12 17:23:00,
2013-07-12 13:28:00,70.3,63.9,29.06,NE,45,0.0,0.0,80,0.00,,---,0.25,VWS V13.01,2013-07-12 17:28:00,
2013-07-12 13:35:00,70.5,64.1,29.06,NE,45,0.0,0.0,80,0.00,,---,0.25,VWS V13.01,2013-07-12 17:35:00,
2013-07-12 13:41:00,70.5,64.1,29.06,NE,45,0.0,0.0,80,0.00,,---,0.25,VWS V13.01,2013-07-12 17:41:00,
2013-07-12 13:46:00,70.3,63.9,29.06,NE,45,0.0,0.0,80,0.00,,---,0.25,VWS V13.01,2013-07-12 17:46:00,
2013-07-12 13:51:00,70.5,64.1,29.06,NE,45,0.0,0.0,80,0.00,,---,0.25,VWS V13.01,2013-07-12 17:51:00,
2013-07-12 13:57:00,70.5,64.1,29.06,NE,45,0.0,0.0,80,0.00,,---,0.25,VWS V13.01,2013-07-12 17:57:00,
2013-07-12 14:03:00,70.7,64.2,29.06,NE,45,0.0,0.0,80,0.00,,---,0.25,VWS V13.01,2013-07-12 18:03:00,
2013-07-12 14:09:00,70.9,64.4,29.06,NE,45,0.0,0.0,80,0.00,,---,0.25,VWS V13.01,2013-07-12 18:09:00,
2013-07-12 14:14:00,70.9,64.4,29.06,NE,45,0.0,0.0,80,0.00,,---,0.25,VWS V13.01,2013-07-12 18:14:00,
2013-07-12 14:19:00,71.1,64.6,29.06,NE,45,0.0,0.0,80,0.00,,---,0.25,VWS V13.01,2013-07-12 18:19:00,
2013-07-12 14:25:00,71.2,64.8,29.06,NE,45,0.0,0.0,80,0.00,,---,0.25,VWS V13.01,2013-07-12 18:25:00,
2013-07-12 14:30:00,71.2,64.8,29.06,NE,45,0.0,0.0,80,0.00,,---,0.25,VWS V13.01,2013-07-12 18:30:00,
2013-07-12 14:35:00,71.4,64.9,29.06,NE,45,0.0,0.0,80,0.00,,---,0.25,VWS V13.01,2013-07-12 18:35:00,
2013-07-12 14:40:00,71.4,64.9,29.06,NE,45,0.0,0.0,80,0.00,,---,0.25,VWS V13.01,2013-07-12 18:40:00,
2013-07-12 14:46:00,71.4,64.9,29.06,NE,45,0.0,0.0,80,0.00,,---,0.25,VWS V13.01,2013-07-12 18:46:00,
2013-07-12 14:51:00,71.4,64.9,29.06,NE,45,0.0,0.0,80,0.00,,---,0.25,VWS V13.01,2013-07-12 18:51:00,
2013-07-12 14:57:00,71.8,65.3,29.06,NE,45,0.0,0.0,80,0.00,,---,0.25,VWS V13.01,2013-07-12 18:57:00,
2013-07-12 15:02:00,72.0,65.5,29.06,NE,45,0.0,0.0,80,0.00,,---,0.25,VWS V13.01,2013-07-12 19:02:00,
2013-07-12 15:07:00,72.1,65.6,29.03,NE,45,0.0,0.0,80,0.00,,---,0.25,VWS V13.01,2013-07-12 19:07:00,
2013-07-12 15:13:00,72.3,65.8,29.03,NE,45,0.0,0.0,80,0.00,,---,0.25,VWS V13.01,2013-07-12 19:13:00,
2013-07-12 15:19:00,72.1,65.6,29.06,NE,45,0.0,0.0,80,0.00,,---,0.25,VWS V13.01,2013-07-12 19:19:00,
2013-07-12 15:24:00,72.1,65.6,29.06,NE,45,0.0,0.0,80,0.00,,---,0.25,VWS V13.01,2013-07-12 19:24:00,
2013-07-12 15:29:00,72.5,66.0,29.06,NE,45,0.0,0.0,80,0.00,,---,0.25,VWS V13.01,2013-07-12 19:29:00,
2013-07-12 15:35:00,72.7,66.2,29.06,NE,45,0.0,0.0,80,0.00,,---,0.25,VWS V13.01,2013-07-12 19:35:00,
2013-07-12 15:40:00,72.7,66.2,29.06,NE,45,0.0,0.0,80,0.00,,---,0.25,VWS V13.01,2013-07-12 19:40:00,
2013-07-12 15:45:00,72.5,66.0,29.06,NE,45,0.0,0.0,80,0.00,,---,0.25,VWS V13.01,2013-07-12 19:45:00,
2013-07-12 15:50:00,72.5,66.0,29.03,NE,45,0.0,0.0,80,0.00,,---,0.25,VWS V13.01,2013-07-12 19:50:00,
2013-07-12 15:55:00,72.3,65.8,29.03,NE,45,0.0,0.0,80,0.00,,---,0.25,VWS V13.01,2013-07-12 19:55:00,
2013-07-12 16:01:00,72.3,65.8,29.03,NE,45,0.0,0.0,80,0.00,,---,0.25,VWS V13.01,2013-07-12 20:01:00,
2013-07-12 16:06:00,72.3,65.8,29.06,NE,45,0.0,0.0,80,0.00,,---,0.25,VWS V13.01,2013-07-12 20:06:00,
2013-07-12 16:12:00,71.6,64.8,29.06,NE,45,0.0,0.0,79,0.00,,---,0.25,VWS V13.01,2013-07-12 20:12:00,
2013-07-12 16:17:00,71.2,64.4,29.03,NE,45,0.0,0.0,79,0.00,,---,0.25,VWS V13.01,2013-07-12 20:17:00,
2013-07-12 16:23:00,71.1,64.2,29.03,NE,45,0.0,0.0,79,0.00,,---,0.25,VWS V13.01,2013-07-12 20:23:00,
2013-07-12 16:28:00,71.1,64.2,29.03,NE,45,0.0,0.0,79,0.00,,---,0.25,VWS V13.01,2013-07-12 20:28:00,
2013-07-12 16:34:00,71.1,64.2,29.06,NE,45,0.0,0.0,79,0.00,,---,0.25,VWS V13.01,2013-07-12 20:34:00,
2013-07-12 16:40:00,70.9,64.1,29.06,NE,45,0.0,0.0,79,0.00,,---,0.25,VWS V13.01,2013-07-12 20:40:00,
2013-07-12 16:45:00,70.7,63.5,29.06,NE,45,0.0,0.0,78,0.00,,---,0.25,VWS V13.01,2013-07-12 20:45:00,
2013-07-12 16:51:00,70.9,63.7,29.03,NE,45,0.0,0.0,78,0.00,,---,0.25,VWS V13.01,2013-07-12 20:51:00,
2013-07-12 16:57:00,71.2,64.0,29.03,NE,45,0.0,0.0,78,0.00,,---,0.25,VWS V13.01,2013-07-12 20:57:00,
2013-07-12 17:02:00,71.6,64.4,29.03,NE,45,0.0,0.0,78,0.00,,---,0.25,VWS V13.01,2013-07-12 21:02:00,
2013-07-12 17:07:00,72.0,64.7,29.03,NE,45,0.0,0.0,78,0.00,,---,0.25,VWS V13.01,2013-07-12 21:07:00,
2013-07-12 17:13:00,72.0,64.4,29.03,NE,45,0.0,0.0,77,0.00,,---,0.25,VWS V13.01,2013-07-12 21:13:00,
2013-07-12 17:18:00,72.0,64.4,29.03,NE,45,0.0,0.0,77,0.00,,---,0.25,VWS V13.01,2013-07-12 21:18:00,
2013-07-12 17:24:00,71.6,63.6,29.03,NE,45,0.0,0.0,76,0.00,,---,0.25,VWS V13.01,2013-07-12 21:24:00,
2013-07-12 17:29:00,72.0,64.0,29.03,NE,45,0.0,0.0,76,0.00,,---,0.25,VWS V13.01,2013-07-12 21:29:00,
2013-07-12 17:35:00,71.8,63.8,29.03,NE,45,0.0,0.0,76,0.00,,---,0.25,VWS V13.01,2013-07-12 21:35:00,
2013-07-12 17:40:00,71.8,63.8,29.03,NE,45,0.0,0.0,76,0.00,,---,0.25,VWS V13.01,2013-07-12 21:40:00,
2013-07-12 17:45:00,72.1,64.2,29.03,NE,45,0.0,0.0,76,0.00,,---,0.25,VWS V13.01,2013-07-12 21:45:00,
2013-07-12 17:50:00,72.5,64.5,29.03,NE,45,0.0,0.0,76,0.00,,---,0.25,VWS V13.01,2013-07-12 21:50:00,
2013-07-12 17:56:00,72.5,64.5,29.03,NE,45,0.0,0.0,76,0.00,,---,0.25,VWS V13.01,2013-07-12 21:56:00,
2013-07-12 18:01:00,72.5,64.1,29.03,NE,45,0.0,0.0,75,0.00,,---,0.25,VWS V13.01,2013-07-12 22:01:00,
2013-07-12 18:07:00,72.1,63.4,29.03,NE,45,0.0,0.0,74,0.00,,---,0.25,VWS V13.01,2013-07-12 22:07:00,
2013-07-12 18:12:00,71.6,62.5,29.03,NE,45,0.0,0.0,73,0.00,,---,0.25,VWS V13.01,2013-07-12 22:12:00,
2013-07-12 18:17:00,71.6,62.9,29.06,NE,45,0.0,0.0,74,0.00,,---,0.25,VWS V13.01,2013-07-12 22:17:00,
2013-07-12 18:23:00,71.4,63.1,29.06,NE,45,0.0,0.0,75,0.00,,---,0.25,VWS V13.01,2013-07-12 22:23:00,
2013-07-12 18:28:00,71.4,62.7,29.06,NE,45,0.0,0.0,74,0.00,,---,0.25,VWS V13.01,2013-07-12 22:28:00,
2013-07-12 18:34:00,71.4,63.5,29.03,NE,45,0.0,0.0,76,0.00,,---,0.25,VWS V13.01,2013-07-12 22:34:00,
2013-07-12 18:40:00,71.2,63.3,29.03,NE,45,0.0,0.0,76,0.00,,---,0.25,VWS V13.01,2013-07-12 22:40:00,
2013-07-12 18:45:00,71.2,63.3,29.03,NE,45,0.0,0.0,76,0.00,,---,0.25,VWS V13.01,2013-07-12 22:45:00,
2013-07-12 18:51:00,71.2,63.3,29.03,NE,45,0.0,0.0,76,0.00,,---,0.25,VWS V13.01,2013-07-12 22:51:00,
2013-07-12 18:56:00,70.7,62.8,29.03,NE,45,0.0,0.0,76,0.00,,---,0.25,VWS V13.01,2013-07-12 22:56:00,
2013-07-12 19:01:00,70.7,63.1,29.06,NE,45,0.0,0.0,77,0.00,,---,0.25,VWS V13.01,2013-07-12 23:01:00,
2013-07-12 19:07:00,70.7,63.1,29.06,NE,45,0.0,0.0,77,0.00,,---,0.25,VWS V13.01,2013-07-12 23:07:00,
2013-07-12 19:12:00,70.7,63.1,29.06,NE,45,0.0,0.0,77,0.00,,---,0.25,VWS V13.01,2013-07-12 23:12:00,
2013-07-12 19:18:00,70.5,63.3,29.06,NE,45,0.0,0.0,78,0.00,,---,0.25,VWS V13.01,2013-07-12 23:18:00,
2013-07-12 19:23:00,70.5,63.3,29.06,NE,45,0.0,0.0,78,0.00,,---,0.25,VWS V13.01,2013-07-12 23:23:00,
2013-07-12 19:29:00,70.5,63.3,29.06,NE,45,0.0,0.0,78,0.00,,---,0.25,VWS V13.01,2013-07-12 23:29:00,
2013-07-12 19:34:00,70.3,63.2,29.06,NE,45,0.0,0.0,78,0.00,,---,0.25,VWS V13.01,2013-07-12 23:34:00,
2013-07-12 19:39:00,70.3,63.2,29.06,NE,45,0.0,0.0,78,0.00,,---,0.25,VWS V13.01,2013-07-12 23:39:00,
2013-07-12 19:44:00,70.0,62.8,29.06,NE,45,0.0,0.0,78,0.00,,---,0.25,VWS V13.01,2013-07-12 23:44:00,
2013-07-12 19:50:00,70.0,62.8,29.06,NE,45,0.0,0.0,78,0.00,,---,0.25,VWS V13.01,2013-07-12 23:50:00,
2013-07-12 19:55:00,69.8,62.6,29.06,NE,45,0.0,0.0,78,0.00,,---,0.25,VWS V13.01,2013-07-12 23:55:00,
2013-07-12 20:00:00,69.6,62.5,29.06,NE,45,0.0,0.0,78,0.00,,---,0.25,VWS V13.01,2013-07-13 00:00:00,
2013-07-12 20:06:00,69.6,62.5,29.06,NE,45,0.0,0.0,78,0.00,,---,0.25,VWS V13.01,2013-07-13 00:06:00,
2013-07-12 20:12:00,69.6,62.8,29.06,NE,45,0.0,0.0,79,0.00,,---,0.25,VWS V13.01,2013-07-13 00:12:00,
2013-07-12 20:18:00,69.6,62.8,29.06,NE,45,0.0,0.0,79,0.00,,---,0.25,VWS V13.01,2013-07-13 00:18:00,
2013-07-12 20:23:00,69.6,62.8,29.06,NE,45,0.0,0.0,79,0.00,,---,0.25,VWS V13.01,2013-07-13 00:23:00,
2013-07-12 20:28:00,69.6,62.8,29.06,NE,45,0.0,0.0,79,0.00,,---,0.25,VWS V13.01,2013-07-13 00:28:00,
2013-07-12 20:33:00,69.4,62.7,29.06,NE,45,0.0,0.0,79,0.00,,---,0.25,VWS V13.01,2013-07-13 00:33:00,
2013-07-12 20:38:00,69.4,62.7,29.06,NE,45,0.0,0.0,79,0.00,,---,0.25,VWS V13.01,2013-07-13 00:38:00,
2013-07-12 20:46:00,69.4,62.7,29.06,NE,45,0.0,0.0,79,0.00,,---,0.25,VWS V13.01,2013-07-13 00:46:00,
2013-07-12 20:52:00,69.4,62.7,29.06,NE,45,0.0,0.0,79,0.00,,---,0.25,VWS V13.01,2013-07-13 00:52:00,
2013-07-12 20:57:00,69.4,62.7,29.06,NE,45,0.0,0.0,79,0.00,,---,0.25,VWS V13.01,2013-07-13 00:57:00,
2013-07-12 21:02:00,69.3,62.5,29.06,NE,45,0.0,0.0,79,0.00,,---,0.25,VWS V13.01,2013-07-13 01:02:00,
2013-07-12 21:08:00,69.4,62.7,29.06,NE,45,0.0,0.0,79,0.00,,---,0.25,VWS V13.01,2013-07-13 01:08:00,
2013-07-12 21:14:00,69.3,62.8,29.06,NE,45,0.0,0.0,80,0.00,,---,0.25,VWS V13.01,2013-07-13 01:14:00,
2013-07-12 21:19:00,69.3,62.8,29.06,NE,45,0.0,0.0,80,0.00,,---,0.25,VWS V13.01,2013-07-13 01:19:00,
2013-07-12 21:24:00,69.3,62.8,29.06,NE,45,0.0,0.0,80,0.00,,---,0.25,VWS V13.01,2013-07-13 01:24:00,
2013-07-12 21:30:00,68.9,62.5,29.06,NE,45,0.0,0.0,80,0.00,,---,0.25,VWS V13.01,2013-07-13 01:30:00,
2013-07-12 21:35:00,68.9,62.5,29.06,NE,45,0.0,0.0,80,0.00,,---,0.25,VWS V13.01,2013-07-13 01:35:00,
2013-07-12 21:40:00,68.9,62.5,29.06,NE,45,0.0,0.0,80,0.00,,---,0.25,VWS V13.01,2013-07-13 01:40:00,
2013-07-12 21:45:00,68.9,62.5,29.06,NE,45,0.0,0.0,80,0.00,,---,0.25,VWS V13.01,2013-07-13 01:45:00,
2013-07-12 21:51:00,68.7,62.3,29.06,NE,45,0.0,0.0,80,0.00,,---,0.25,VWS V13.01,2013-07-13 01:51:00,
2013-07-12 21:56:00,68.7,62.3,29.06,NE,45,0.0,0.0,80,0.00,,---,0.25,VWS V13.01,2013-07-13 01:56:00,
2013-07-12 22:03:00,68.7,62.3,29.09,NE,45,0.0,0.0,80,0.00,,---,0.00,VWS V13.01,2013-07-13 02:03:00,
2013-07-12 22:09:00,68.7,62.3,29.09,NE,45,0.0,0.0,80,0.00,,---,0.25,VWS V13.01,2013-07-13 02:09:00,
2013-07-12 22:14:00,68.7,62.3,29.09,NE,45,0.0,0.0,80,0.00,,---,0.25,VWS V13.01,2013-07-13 02:14:00,
2013-07-12 22:19:00,68.7,62.3,29.06,NE,45,0.0,0.0,80,0.00,,---,0.25,VWS V13.01,2013-07-13 02:19:00,
2013-07-12 22:25:00,68.7,62.3,29.06,NE,45,0.0,0.0,80,0.00,,---,0.25,VWS V13.01,2013-07-13 02:25:00,
2013-07-12 22:30:00,68.7,62.3,29.06,NE,45,0.0,0.0,80,0.00,,---,0.25,VWS V13.01,2013-07-13 02:30:00,
2013-07-12 22:35:00,68.9,62.5,29.09,NE,45,0.0,0.0,80,0.00,,---,0.25,VWS V13.01,2013-07-13 02:35:00,
2013-07-12 22:41:00,68.9,62.5,29.09,NE,45,0.0,0.0,80,0.00,,---,0.25,VWS V13.01,2013-07-13 02:41:00,
2013-07-12 22:47:00,68.9,62.5,29.09,NE,45,0.0,0.0,80,0.00,,---,0.25,VWS V13.01,2013-07-13 02:47:00,
2013-07-12 22:53:00,69.1,62.7,29.09,NE,45,0.0,0.0,80,0.00,,---,0.25,VWS V13.01,2013-07-13 02:53:00,
2013-07-12 22:58:00,69.3,62.8,29.09,NE,45,0.0,0.0,80,0.00,,---,0.25,VWS V13.01,2013-07-13 02:58:00,
2013-07-12 23:03:00,69.4,63.0,29.09,NE,45,0.0,0.0,80,0.00,,---,0.25,VWS V13.01,2013-07-13 03:03:00,
2013-07-12 23:09:00,69.4,63.4,29.09,NE,45,0.0,0.0,81,0.00,,---,0.25,VWS V13.01,2013-07-13 03:09:00,
2013-07-12 23:14:00,69.4,63.4,29.09,NE,45,0.0,0.0,81,0.00,,---,0.25,VWS V13.01,2013-07-13 03:14:00,
2013-07-12 23:19:00,69.8,63.4,29.09,NE,45,0.0,0.0,80,0.00,,---,0.25,VWS V13.01,2013-07-13 03:19:00,
2013-07-12 23:24:00,69.8,63.4,29.09,NE,45,0.0,0.0,80,0.00,,---,0.25,VWS V13.01,2013-07-13 03:24:00,
2013-07-12 23:30:00,69.8,63.4,29.09,NE,45,0.0,0.0,80,0.00,,---,0.25,VWS V13.01,2013-07-13 03:30:00,
2013-07-12 23:36:00,69.8,63.4,29.09,NE,45,0.0,0.0,80,0.00,,---,0.25,VWS V13.01,2013-07-13 03:36:00,
2013-07-12 23:42:00,69.8,63.4,29.09,NE,45,0.0,0.0,80,0.00,,---,0.25,VWS V13.01,2013-07-13 03:42:00,
2013-07-12 23:48:00,69.8,63.4,29.09,NE,45,0.0,0.0,80,0.00,,---,0.25,VWS V13.01,2013-07-13 03:48:00,
2013-07-12 23:53:00,69.8,63.7,29.09,NE,45,0.0,0.0,81,0.00,,---,0.25,VWS V13.01,2013-07-13 03:53:00,
2013-07-12 23:58:00,69.8,63.7,29.09,NE,45,0.0,0.0,81,0.00,,---,0.25,VWS V13.01,2013-07-13 03:58:00,